STARLINK-4608, 53621

Orbit data source: Space-Track

STARLINK-4608, 53621 is a payload satellite owned by SpaceX/Seattle (US) in LEO that was launched on Sun, 28 Aug 2022 UTC via an FALCON 9 launch vehicle from the Air Force Eastern Test Range (AFETR). Payload-class satellites include a variety of spacecraft equipped with specific instruments for various scientific and technological missions. These include communications satellites like Starlink; space stations such as the ISS; scientific satellites like the Hubble; Earth observation satellites from companies like Planet Labs, Umbra, and HawkEye 360; GPS; miniature CubeSats for education and research; and military/defense satellites.

Loading next visibility...
Identifier
53621, 2022-104AK
Orbit
LEO
Country
Flag of USUS
Related business
Manufacturer
SpaceX/Seattle
Mission
Operational Commercial Communications
Bus & Motor
STARLINK, Unknown motor
Mass
300 kg wet, ~290 kg dry
Launch date (UTC)
2022-08-28 (3 years ago)
Launch vehicle
FALCON 9
Launch site
Air Force Eastern Test Range (AFETR)
Object type
Payload
Rocket body
Debris
Shape & HBR
Box + 1 Pan, 10.1 m
Radar Cross Section
13.562 m², Large (>1 m²)

Expand to show TLE details & history
Last TLE update: 23 hours ago

TLE from 23 hours ago
0 STARLINK-4608
1 53621U 22104AK  25347.16696918  .00001267  00000-0  97690-4 0  9994
2 53621  53.2160 262.4895 0001691  80.4510 279.6674 15.08838590182578
Epoch: 2025-12-13T04:00Z
TLE epoch observation values (Epoch: 2025-12-13T04:00:26.137Z)
Latitude
0.00006°
Longitude
120.28251°
Altitude
540.449 km
Speed
7.593 km/s
True Right ascension
17h 29m 57s
True Declination
0° 00' 00"
Sunlit
Object was in daylight at epoch
Visualization orbit readout
Latitude
Unknown
Longitude
Unknown
Altitude
Unknown
Speed
Unknown
Apparent Right ascension
Unknown
Apparent Declination
Unknown
Sunlit
N/A
Visualization observer readout
Local Sidereal Time
01:32:05
Azimuth
Unknown
Elevation
Unknown
Doppler factor
Unknown
Orbital elements
Apogee altitude
541.163 km
Perigee altitude
538.823 km
Semi-major axis
6,918.13 km
Eccentricity
0.00017
Inclination
53.216°
RAAN
262.4895°
Arg. of periapsis
80.451°
True anomaly
279.6483°
Mean anomaly
279.6674°
Eccentric anomaly
279.65785°
Mean motion
3.7719 °/min
Orbital period
95.44 mins
BSTAR
0.00009769
Loading maneuver chart data...
Computing Atmospheric mass density...
Loading historical data...
Loading historical data...
Loading historical data...
Loading historical data...
Loading historical data...
Loading historical data...
Loading historical data...

Documentation

Showing up to 5 results
|